SCP
0 0 0 0 0 0 0 -0 0 0 0 0 0 0 0 -0 -0 0 0 -0 -0 -0
0 0 0 0 0 0 -0 -0 0 0 0 0 0 0 0 -0 -0 0 0 0 0 -0
0 0 0 0 -0 0 -0 -0 -0 -0 0 0 0 0 0 0 0 0 0 -0 -0 -0
0 0 0 0 -0 -0 -0 0 -0 0 0 0 0 0 0 0 0 0 -0 -0 -0 -0
0 0 0 0 -0 -0 -0 -0 -0 0 0 0 0 0 0 0 0 0 0 0 0 0
0 0 0 0 -0 0 -0 -0 -0 -0 -0 -0 0 0 0 0 0 0 0 0 -0 0
0 0 0 0 0 -0 0 -0 -0 0 0 0 0 0 0 0 0 0 0 0 0 -0
0 0 0 0 0 -0 -0 -0 0 -0 0 -0 0 0 0 0 0 0 0 0 0 0
0 0 0 0 0 0 -0 -0 -0 -0 0 -0 0 0 0 0 0 0 0 0 0 0
0 0 0 0 0 0 0 0 -0 -0 0 0 0 0 0 0 0 0 0 0 0 0
0 0 0 0 0 0 0 0 0 0 -0 0 -0 -0 0 0 0 0 0 0 0 0
0 0 0 0 0 0 0 0 0 0 -0 -0 0 0 0 0 0 -0 0 0 0 0
-0 0 0 0 0 0 0 0 0 0 -0 -0 -0 -0 -0 0 -0 -0 0 0 0 0
-0 -0 -0 0 0 0 0 0 0 0 0 0 -0 -0 -0 -0 -0 -0 0 0 0 0
Wind_Speed_500mb
3 6 9 7 4 3 5 8 12 16 15 14 20 27 29 23 16 17 18 15 10 12
3 5 6 5 4 7 6 7 14 20 17 16 20 26 30 24 18 20 15 13 15 13
3 6 3 4 5 6 7 8 18 21 19 19 22 25 27 26 25 20 17 14 15 18
3 7 5 8 10 7 10 10 16 21 22 20 21 23 24 25 26 21 20 19 16 22
6 9 10 12 10 10 12 14 17 22 23 23 23 22 22 22 22 23 22 22 21 18
10 14 14 13 12 13 12 14 17 19 23 24 22 21 19 18 18 24 24 22 24 25
13 16 17 19 14 13 15 15 17 20 24 24 23 21 19 24 28 26 23 23 21 22
19 15 18 20 20 13 15 17 18 20 24 25 22 22 20 25 23 23 24 25 26 25
21 19 16 15 13 15 13 18 18 20 23 27 26 22 22 27 23 15 15 24 32 32
23 22 18 14 13 12 12 18 15 16 21 26 27 27 29 25 21 17 21 28 33 31
27 26 22 19 16 14 17 19 11 13 21 25 28 29 28 19 18 24 26 25 32 36
33 31 27 21 18 17 16 15 13 12 16 35 31 32 31 27 29 31 31 40 43 38
35 33 29 25 20 20 20 19 19 23 31 37 32 36 32 30 31 46 44 46 46 41
33 36 31 30 24 20 23 20 22 25 31 31 32 35 38 31 33 43 44 37 42 44
Wind_Direction_500mb
6 334 339 347 13 127 159 175 187 180 178 176 172 176 173 176 164 158 162 164 190 211
43 347 356 24 105 124 113 131 165 167 167 165 165 170 178 173 171 166 162 143 131 137
56 7 13 73 102 126 104 117 159 157 154 158 160 163 166 165 169 171 165 145 126 148
66 27 83 101 89 114 110 126 155 158 152 154 159 162 161 160 166 163 157 145 145 137
83 43 122 122 92 95 119 132 140 164 166 161 159 155 160 165 167 169 165 155 157 165
110 76 106 119 106 107 115 128 137 150 163 165 165 160 156 162 166 161 161 161 173 160
144 99 98 105 105 108 124 122 130 143 154 159 158 157 153 151 151 147 155 169 169 163
164 133 111 107 85 100 119 127 127 146 146 146 149 145 145 152 158 149 147 148 145 149
170 157 128 124 104 85 114 127 132 134 145 141 141 132 134 139 139 143 161 155 147 148
177 164 150 136 121 109 119 138 125 149 150 151 139 139 137 124 117 115 122 134 134 133
181 169 159 145 127 118 117 139 99 141 160 170 148 144 153 144 119 123 118 128 133 144
183 175 168 156 140 128 123 132 126 100 161 168 148 154 145 140 131 130 138 143 136 124
188 183 176 170 155 141 132 120 123 96 120 149 147 151 151 145 136 137 130 129 129 126
195 189 183 176 168 155 148 135 121 124 122 145 158 153 159 154 145 146 142 132 143 134
Wind_Speed_850mb
3 6 9 7 4 3 5 8 12 16 15 14 20 27 29 23 16 17 18 15 10 12
3 5 6 5 4 7 6 7 14 20 17 16 20 26 30 24 18 20 15 13 15 13
3 6 3 4 5 6 7 8 18 21 19 19 22 25 27 26 25 20 17 14 15 18
3 7 5 8 10 7 10 10 16 21 22 20 21 23 24 25 26 21 20 19 16 22
6 9 10 12 10 10 12 14 17 22 23 23 23 22 22 22 22 23 22 22 21 18
10 14 14 13 12 13 12 14 17 19 23 24 22 21 19 18 18 24 24 22 24 25
13 16 17 19 14 13 15 15 17 20 24 24 23 21 19 24 28 26 23 23 21 22
19 15 18 20 20 13 15 17 18 20 24 25 22 22 20 25 23 23 24 25 26 25
21 19 16 15 13 15 13 18 18 20 23 27 26 22 22 27 23 15 15 24 32 32
23 22 18 14 13 12 12 18 15 16 21 26 27 27 29 25 21 17 21 28 33 31
27 26 22 19 16 14 17 19 11 13 21 25 28 29 28 19 18 24 26 25 32 36
33 31 27 21 18 17 16 15 13 12 16 35 31 32 31 27 29 31 31 40 43 38
35 33 29 25 20 20 20 19 19 23 31 37 32 36 32 30 31 46 44 46 46 41
33 36 31 30 24 20 23 20 22 25 31 31 32 35 38 31 33 43 44 37 42 44
Wind_Direction_850mb
6 334 339 347 13 127 159 175 187 180 178 176 172 176 173 176 164 158 162 164 190 211
43 347 356 24 105 124 113 131 165 167 167 165 165 170 178 173 171 166 162 143 131 137
56 7 13 73 102 126 104 117 159 157 154 158 160 163 166 165 169 171 165 145 126 148
66 27 83 101 89 114 110 126 155 158 152 154 159 162 161 160 166 163 157 145 145 137
83 43 122 122 92 95 119 132 140 164 166 161 159 155 160 165 167 169 165 155 157 165
110 76 106 119 106 107 115 128 137 150 163 165 165 160 156 162 166 161 161 161 173 160
144 99 98 105 105 108 124 122 130 143 154 159 158 157 153 151 151 147 155 169 169 163
164 133 111 107 85 100 119 127 127 146 146 146 149 145 145 152 158 149 147 148 145 149
170 157 128 124 104 85 114 127 132 134 145 141 141 132 134 139 139 143 161 155 147 148
177 164 150 136 121 109 119 138 125 149 150 151 139 139 137 124 117 115 122 134 134 133
181 169 159 145 127 118 117 139 99 141 160 170 148 144 153 144 119 123 118 128 133 144
183 175 168 156 140 128 123 132 126 100 161 168 148 154 145 140 131 130 138 143 136 124
188 183 176 170 155 141 132 120 123 96 120 149 147 151 151 145 136 137 130 129 129 126
195 189 183 176 168 155 148 135 121 124 122 145 158 153 159 154 145 146 142 132 143 134